Back to catalog

FALCON 9 R/B

AliveMEO
NORAD 54757·ROCKET BODY·🇺🇸 United States

Launched Dec 16, 2022 from Cape Canaveral Space Force Station

Loading…

Next Passes (next 24 hours)

TLE

FreshSource: Space-Track

Epoch: Sep 14, 2026, 03:35 UTC

1 54757U 22174C   26257.14952397  .00000042  00000-0  00000-0 0  9992
2 54757   9.6147  85.3795 1867294  88.3918 292.8023  7.26281939 99403

Track FALCON 9 R/B in real time with AllMySat

Download on the App Store